Location: Newark
(51.2625°N, 13.3939°E)
Time: 08:50:14
(UTC+00:00)

Transit 2A Rocket - Pass Details

Date: 20 January 2021
Orbit: 594 x 909 km, 66.7° (Epoch: 24 February)

Event Time Altitude Azimuth Distance (km) Brightness Sun altitude
Rises 19:01:11 0° 323° (NW) 3,012 8.7 -31.5°
Reaches altitude 10° 19:03:52 10° 335° (NNW) 2,050 7.5 -31.9°
Enters shadow 19:04:32 13° 341° (NNW) 1,833 7.2 -32.0°
